Location: Baller�as
(41.9020°N, 0.1554°W)
Time: 12:39:21
(UTC+00:00)

H-2A R/B - Pass Details

Date: 10 August 2020
Orbit: 733 x 836 km, 98.2° (Epoch: 22 September)

Event Time Altitude Azimuth Distance (km) Brightness Sun altitude
Rises 19:26:30 0° 173° (S) 3,282 5.0 -4.1°
Reaches altitude 10° 19:28:52 10° 176° (S) 2,341 4.2 -4.5°
Maximum altitude 19:34:00 66° 258° (WSW) 841 2.5 -5.4°
Drops below altitude 10° 19:39:01 10° 341° (NNW) 2,293 5.2 -6.2°
Sets 19:41:19 0° 345° (NNW) 3,210 5.9 -6.6°
